Vorticity
nan nan nan nan nan nan nan nan nan nan nan nan nan nan nan nan nan nan nan nan nan nan nan nan nan nan nan nan nan nan nan nan nan nan nan nan nan nan nan nan nan nan nan
nan 5 5 6 6 6 6 6 6 6 5 5 5 5 5 5 6 6 5 6 7 7 5 5 7 6 5 5 5 5 6 7 5 5 4 2 2 5 6 5 7 7 nan
nan 6 5 5 6 6 5 5 5 6 5 5 5 5 6 6 5 5 4 5 6 7 6 5 6 5 5 5 4 5 4 6 5 4 2 3 3 6 6 6 5 5 nan
nan 7 5 5 5 6 5 5 6 5 4 5 5 6 6 6 5 4 6 6 6 5 5 5 5 4 6 5 5 6 3 4 5 5 5 5 5 4 3 7 7 6 nan
nan 5 6 6 6 6 6 5 5 5 5 5 5 6 6 7 6 4 5 6 7 6 6 5 5 4 3 4 6 7 5 2 6 5 7 8 4 4 10 6 2 7 nan
nan 5 5 5 6 6 5 5 5 5 5 5 6 6 6 6 5 4 6 7 7 6 5 6 5 4 4 6 7 4 5 5 3 4 4 5 8 5 7 7 2 4 nan
nan 6 5 5 7 5 5 6 5 6 6 5 6 6 8 6 5 6 6 7 7 7 6 6 6 5 4 6 5 2 3 6 5 6 5 6 9 6 3 3 5 5 nan
nan 7 6 5 5 6 6 4 6 6 5 6 7 7 6 6 6 6 6 7 8 5 6 6 6 5 5 6 3 4 5 5 7 5 4 5 7 8 7 4 5 7 nan
nan 5 8 6 3 5 4 5 7 6 5 7 7 7 6 6 7 7 9 7 6 6 6 6 7 7 6 5 3 4 7 5 8 6 5 7 9 5 5 4 5 6 nan
nan 5 6 8 7 4 3 5 7 6 5 7 6 7 5 4 5 8 8 6 6 6 6 6 6 7 6 5 5 3 4 7 5 6 6 9 9 7 4 4 6 6 nan
nan 7 6 6 7 7 5 4 4 4 3 3 3 5 4 5 5 4 5 7 6 7 6 6 6 5 3 2 1 4 4 7 5 5 6 9 7 5 5 5 6 5 nan
nan 6 6 5 5 7 7 6 2 1 2 3 5 3 5 7 6 6 6 5 4 4 4 5 4 2 3 1 2 3 8 7 5 6 8 8 6 5 6 5 5 6 nan
nan 5 6 5 8 5 4 3 4 6 8 7 7 6 6 6 6 5 5 5 5 3 4 4 1 4 7 6 7 7 8 5 5 7 7 7 8 6 5 6 5 5 nan
nan 5 5 4 6 4 4 6 7 8 7 6 6 7 5 7 7 6 7 7 5 5 7 4 5 8 7 8 7 7 6 6 7 7 7 5 5 8 5 5 6 5 nan
nan 6 6 5 3 4 5 7 7 7 8 8 6 6 7 7 7 7 7 7 7 7 6 7 7 6 7 6 6 6 6 7 6 6 6 8 8 4 4 5 6 5 nan
nan 6 8 7 5 4 4 6 7 7 7 8 8 8 7 6 8 7 6 7 8 7 7 8 7 6 7 6 7 6 6 7 6 6 7 5 4 9 10 6 5 6 nan
nan 8 8 9 6 4 4 5 7 8 6 7 9 9 6 7 8 6 6 6 6 8 7 6 6 7 7 7 7 6 6 6 7 6 5 6 6 5 8 6 5 6 nan
nan 7 7 9 7 6 5 5 8 8 6 6 8 8 8 7 7 6 6 7 6 7 6 6 7 6 6 7 7 7 6 7 7 6 6 6 5 4 7 10 6 5 nan
nan 8 6 8 8 6 6 6 9 8 6 7 7 8 9 7 7 6 7 8 7 5 7 8 9 8 7 7 7 7 7 7 7 7 7 6 6 6 7 8 6 9 nan
nan 9 6 7 9 6 6 8 8 7 8 9 8 9 8 7 8 6 8 8 6 5 8 9 9 8 8 8 8 7 7 6 6 7 8 7 7 7 6 5 9 8 nan
nan 18 7 5 5 6 6 7 8 7 7 8 10 10 6 8 8 6 7 8 6 7 8 7 8 7 7 8 7 8 8 8 7 7 7 8 7 7 7 6 5 7 nan
nan 21 25 10 6 5 6 6 8 10 8 7 9 12 10 7 7 7 7 7 6 6 8 8 5 4 8 7 3 7 11 11 11 11 7 8 6 8 9 7 6 5 nan
nan 10 12 21 20 8 6 5 8 9 8 9 8 10 13 9 7 7 6 6 7 6 7 8 8 5 5 7 5 5 8 8 11 15 12 9 8 6 7 9 9 8 nan
nan 10 11 22 20 10 7 8 7 5 5 8 8 9 13 13 7 7 7 7 5 6 8 7 8 7 6 6 6 6 4 8 7 8 11 12 12 9 8 8 9 10 nan
nan 10 12 18 26 15 8 6 5 6 5 8 10 9 7 13 12 8 7 7 6 7 9 8 7 6 6 7 6 7 8 7 8 5 6 10 11 12 11 9 9 11 nan
nan nan nan nan nan nan nan nan nan nan nan nan nan nan nan nan nan nan nan nan nan nan nan nan nan nan nan nan nan nan nan nan nan nan nan nan nan nan nan nan nan nan nan
CAPE
288 115 870 920 1023 941 1014 999 975 986 1079 1098 1075 1029 755 672 470 271 189 210 115 48 113 50 32 36 32 18 27 35 43 41 61 57 48 23 53 20 28 23 16 13 14
226 243 841 926 1038 1018 1015 981 967 1006 1089 1155 1012 796 583 287 160 119 112 96 24 26 27 22 24 30 42 44 36 34 27 48 56 30 25 37 23 29 44 34 28 25 68
187 397 359 897 1072 1040 1055 1037 1081 1131 1119 1003 801 583 403 162 42 31 32 38 28 35 29 23 40 48 42 30 35 27 24 26 41 23 37 6 17 42 37 41 45 28 48
165 344 324 919 1095 1126 1102 1056 1033 1013 894 833 699 404 257 40 15 40 39 46 53 36 30 26 34 28 31 28 37 23 24 16 11 22 1 3 20 26 27 36 39 30 43
267 317 711 902 1011 1074 1094 1071 991 915 760 600 397 263 135 12 28 33 34 57 55 39 44 36 23 29 25 29 16 20 14 19 30 9 0 8 11 63 67 37 59 63 48
308 284 690 737 939 1081 1139 1142 945 706 464 309 195 171 11 11 20 54 48 81 64 35 26 11 16 12 18 26 14 13 10 7 13 0 1 19 17 36 55 44 35 24 19
431 433 695 579 816 1011 1205 1104 799 506 321 204 101 67 46 20 29 32 21 55 52 27 27 15 9 11 8 23 18 19 17 17 0 5 5 41 22 22 26 19 7 22 26
572 726 692 763 772 735 886 790 488 314 223 181 55 18 22 23 22 21 30 31 40 31 22 14 8 7 13 14 12 27 20 16 1 11 3 24 20 20 19 20 15 31 34
711 897 944 767 809 695 504 377 216 216 147 79 13 18 19 19 21 21 31 39 38 24 20 12 12 5 12 12 3 22 21 8 1 12 3 5 21 22 22 18 16 20 32
840 863 1148 1054 713 708 587 218 177 122 65 18 10 12 15 18 24 37 38 43 36 23 11 12 23 19 17 6 19 24 19 6 4 5 3 13 49 27 25 11 10 26 14
874 982 1042 965 967 637 486 513 254 160 58 14 9 10 9 13 14 19 33 46 37 20 27 20 22 35 33 29 20 9 3 2 5 3 21 55 24 30 19 10 8 22 14
889 1066 1024 1030 711 709 523 752 421 250 38 8 5 7 12 17 13 10 39 48 35 37 45 32 27 29 19 8 7 1 3 5 2 6 6 29 20 10 14 10 11 23 11
937 994 947 777 657 696 704 832 565 133 24 4 2 3 10 14 18 18 30 27 50 30 17 20 12 4 5 4 2 3 3 2 5 4 13 25 12 18 14 5 4 11 8
1074 929 950 582 692 593 575 374 347 51 4 4 1 4 7 14 19 19 17 31 39 13 11 4 1 0 0 0 0 1 3 0 7 8 7 31 23 22 11 13 9 6 11
1225 1168 1027 765 762 360 415 223 198 92 2 5 5 2 2 4 10 12 13 8 7 2 0 0 0 0 0 0 0 0 0 6 2 10 5 20 34 19 6 14 6 11 6
1368 1333 929 821 633 405 296 224 173 80 5 0 8 4 3 1 6 4 5 3 0 0 0 0 0 0 0 1 0 0 0 1 9 8 8 14 12 18 14 9 11 8 14
1454 1519 981 957 654 487 349 286 88 33 0 1 7 7 2 1 1 1 1 1 0 0 0 0 0 0 0 0 1 3 1 0 5 14 6 3 4 1 13 19 3 8 8
1540 1390 1106 928 612 525 293 252 128 103 23 4 4 2 0 0 0 0 0 0 0 0 0 0 0 0 0 0 1 4 4 0 0 2 6 6 3 0 1 3 13 7 9
1479 1409 1206 764 597 386 244 197 179 174 72 23 3 4 1 0 0 0 0 0 0 0 0 0 0 0 0 0 1 2 5 2 0 0 0 0 1 0 0 4 6 9 16
1245 1449 1280 862 893 417 320 190 223 152 157 34 15 4 2 0 0 0 0 0 0 0 0 0 0 0 0 0 0 0 0 0 1 0 1 0 0 0 0 0 2 3 1
230 1209 1322 1160 900 517 403 271 228 149 109 46 42 11 4 0 0 0 0 0 0 0 0 0 0 0 0 0 0 0 0 0 0 0 1 0 0 0 0 0 0 0 0
2 1 749 1252 737 728 461 594 276 164 163 63 84 51 13 1 0 0 0 0 0 0 0 0 0 0 0 0 1 1 2 0 0 0 0 0 0 0 0 0 0 0 0
0 0 5 3 850 745 479 244 89 109 151 44 72 10 8 4 0 0 0 0 0 0 0 0 0 0 0 0 0 0 0 0 0 0 0 0 0 0 0 0 0 0 0
0 0 4 2 427 513 410 188 12 2 85 84 71 92 29 10 2 0 0 0 0 0 0 0 0 0 0 0 0 0 0 0 0 0 0 0 0 0 0 0 0 0 0
0 0 2 4 92 509 496 348 60 42 164 308 313 205 97 19 27 0 0 0 0 0 0 0 0 0 0 0 0 0 0 0 0 0 0 0 0 0 0 0 0 0 0
0 0 0 3 2 524 444 310 236 186 423 417 224 348 563 98 28 112 7 3 1 0 0 0 0 0 0 0 0 0 0 0 0 0 0 0 0 0 0 0 0 0 0